TimeCST,TemperatureF,Dew PointF,Humidity,Sea Level PressureIn,VisibilityMPH,Wind Direction,Wind SpeedMPH,Gust SpeedMPH,PrecipitationIn,Events,Conditions,WindDirDegrees,DateUTC
12:53 AM,37.9,35.1,89,30.32,9.0,Calm,Calm,-,N/A,,Clear,0,2012-11-19 06:53:00
1:53 AM,39.0,35.1,86,30.31,9.0,Calm,Calm,-,N/A,,Clear,0,2012-11-19 07:53:00
2:53 AM,39.0,35.1,86,30.31,10.0,Calm,Calm,-,N/A,,Clear,0,2012-11-19 08:53:00
3:53 AM,37.9,34.0,86,30.29,9.0,Calm,Calm,-,0.00,,Clear,0,2012-11-19 09:53:00
4:53 AM,39.0,35.1,86,30.30,9.0,Calm,Calm,-,N/A,,Clear,0,2012-11-19 10:53:00
5:53 AM,37.0,35.1,93,30.30,8.0,NNW,3.5,-,0.00,Snow,Light Snow,330,2012-11-19 11:53:00
6:53 AM,37.9,35.1,89,30.31,7.0,Calm,Calm,-,0.00,,Clear,0,2012-11-19 12:53:00
7:53 AM,41.0,37.0,86,30.32,7.0,Calm,Calm,-,N/A,,Clear,0,2012-11-19 13:53:00
8:53 AM,50.0,41.0,71,30.32,8.0,Calm,Calm,-,N/A,,Clear,0,2012-11-19 14:53:00
9:53 AM,55.0,39.0,55,30.32,10.0,SSW,4.6,-,N/A,,Clear,200,2012-11-19 15:53:00
10:53 AM,57.9,37.9,47,30.30,10.0,SSW,6.9,-,N/A,,Clear,210,2012-11-19 16:53:00
11:53 AM,57.0,39.9,53,30.28,10.0,SSW,5.8,-,N/A,,Overcast,210,2012-11-19 17:53:00
12:53 PM,59.0,39.9,49,30.25,10.0,SSW,8.1,-,N/A,,Overcast,210,2012-11-19 18:53:00
1:53 PM,61.0,39.9,46,30.22,10.0,SSW,10.4,-,N/A,,Overcast,210,2012-11-19 19:53:00
2:53 PM,62.1,39.9,44,30.21,5.0,WSW,6.9,-,N/A,,Haze,250,2012-11-19 20:53:00
3:53 PM,59.0,41.0,51,30.20,10.0,SSW,5.8,-,N/A,,Overcast,200,2012-11-19 21:53:00
4:53 PM,57.9,42.1,56,30.20,10.0,South,4.6,-,N/A,,Overcast,190,2012-11-19 22:53:00
5:53 PM,57.0,42.1,57,30.21,10.0,Calm,Calm,-,N/A,,Overcast,0,2012-11-19 23:53:00
6:53 PM,57.0,43.0,59,30.19,10.0,South,3.5,-,N/A,,Overcast,180,2012-11-20 00:53:00
7:53 PM,55.0,45.0,69,30.19,10.0,Calm,Calm,-,N/A,,Overcast,0,2012-11-20 01:53:00
8:53 PM,55.0,45.0,69,30.19,10.0,Calm,Calm,-,0.00,,Overcast,0,2012-11-20 02:53:00
9:53 PM,55.0,45.0,69,30.16,10.0,South,5.8,-,N/A,,Overcast,180,2012-11-20 03:53:00
10:53 PM,55.9,44.1,64,30.16,10.0,Calm,Calm,-,N/A,,Overcast,0,2012-11-20 04:53:00
11:53 PM,54.0,43.0,66,30.15,10.0,SW,3.5,-,N/A,,Partly Cloudy,220,2012-11-20 05:53:00